When you browse on this site, cookies collect data to enhance your experience and personalize the content and advertising you see.
Visit our Privacy Policy to learn more. By continuing to use the site, you agree to this use of cookies and data.
  • In Switzerland
  • List of Countries
  • For 7 days
  • Water Temperature
  • Satellite Maps
  • Weather Map
  • Weather Widgets
  • user-avatar
    Login

    Hourly Weather Grachevka

    Today, 27 June, Thursday

    Time Temperature Precipitation Wind Pressure Humidity
    00:00 +17°C° 0 mm 3 mps 746 mmHg 86%
    01:00 +17°C° 0.3 mm 2 mps 746 mmHg 88%
    02:00 +17°C° 0.3 mm 2 mps 745 mmHg 91%
    03:00 +16°C° 0 mm 2 mps 745 mmHg 92%
    04:00 +16°C° 0.2 mm 2 mps 744 mmHg 93%
    05:00 +16°C° 0.2 mm 2 mps 744 mmHg 95%
    06:00 +14°C° 0.2 mm 3 mps 743 mmHg 96%
    07:00 +17°C° 0.1 mm 3 mps 743 mmHg 94%
    08:00 +18°C° 0.1 mm 3 mps 743 mmHg 91%
    09:00 +19°C° 0.1 mm 3 mps 742 mmHg 89%
    10:00 +19°C° 0.8 mm 3 mps 741 mmHg 91%
    11:00 +19°C° 0.8 mm 3 mps 740 mmHg 93%
    12:00 +19°C° 0.8 mm 3 mps 740 mmHg 96%
    13:00 +19°C° 2.8 mm 3 mps 739 mmHg 96%
    14:00 +19°C° 2.8 mm 3 mps 738 mmHg 96%
    15:00 +19°C° 2.8 mm 4 mps 737 mmHg 96%
    16:00 +19°C° 3.2 mm 4 mps 736 mmHg 96%
    17:00 +19°C° 3.2 mm 4 mps 735 mmHg 96%
    18:00 +20°C° 3.2 mm 4 mps 734 mmHg 97%
    19:00 +20°C° 1.6 mm 4 mps 733 mmHg 96%
    20:00 +20°C° 1.6 mm 4 mps 733 mmHg 95%
    21:00 +20°C° 1.6 mm 4 mps 732 mmHg 95%
    22:00 +19°C° 0.8 mm 4 mps 731 mmHg 95%
    23:00 +19°C° 0.8 mm 5 mps 730 mmHg 96%

    Tomorrow, 28 June, Friday

    Time Temperature Precipitation Wind Pressure Humidity
    00:00 +19°C° 0.8 mm 5 mps 730 mmHg 96%
    01:00 +19°C° 0 mm 5 mps 729 mmHg 96%
    02:00 +17°C° 0 mm 5 mps 729 mmHg 96%
    03:00 +17°C° 0 mm 5 mps 729 mmHg 95%
    04:00 +17°C° 0.1 mm 5 mps 729 mmHg 94%
    05:00 +16°C° 0.1 mm 6 mps 729 mmHg 93%
    06:00 +15°C° 0.1 mm 6 mps 729 mmHg 92%
    07:00 +15°C° 0 mm 6 mps 729 mmHg 91%
    08:00 +15°C° 0 mm 6 mps 729 mmHg 90%
    09:00 +15°C° 0 mm 6 mps 729 mmHg 88%
    10:00 +15°C° 0.1 mm 6 mps 729 mmHg 87%
    11:00 +15°C° 0.1 mm 6 mps 729 mmHg 86%
    12:00 +15°C° 0.1 mm 6 mps 729 mmHg 85%
    13:00 +15°C° 0.2 mm 6 mps 729 mmHg 84%
    14:00 +15°C° 0.2 mm 6 mps 729 mmHg 83%
    15:00 +15°C° 0.2 mm 6 mps 729 mmHg 82%
    16:00 +15°C° 0.2 mm 6 mps 728 mmHg 83%
    17:00 +15°C° 0.2 mm 6 mps 728 mmHg 84%
    18:00 +14°C° 0.2 mm 6 mps 728 mmHg 84%
    19:00 +13°C° 0 mm 5 mps 728 mmHg 86%
    20:00 +13°C° 0 mm 5 mps 728 mmHg 87%
    21:00 +12°C° 0 mm 4 mps 728 mmHg 88%
    22:00 +12°C° 0.2 mm 4 mps 728 mmHg 90%
    23:00 +11°C° 0.2 mm 4 mps 728 mmHg 92%

    Day after tomorrow, 29 June, Saturday

    Time Temperature Precipitation Wind Pressure Humidity
    00:00 +11°C° 0.2 mm 4 mps 728 mmHg 94%
    01:00 +11°C° 0.4 mm 4 mps 728 mmHg 95%
    02:00 +9°C° 0.4 mm 5 mps 728 mmHg 95%
    03:00 +9°C° 0.4 mm 6 mps 728 mmHg 95%
    04:00 +9°C° 0.2 mm 6 mps 728 mmHg 95%
    05:00 +9°C° 0.2 mm 6 mps 728 mmHg 95%
    06:00 +9°C° 0.2 mm 5 mps 728 mmHg 95%
    07:00 +10°C° 0.2 mm 5 mps 729 mmHg 95%
    08:00 +10°C° 0.2 mm 6 mps 729 mmHg 94%
    09:00 +10°C° 0.2 mm 6 mps 730 mmHg 94%
    10:00 +10°C° 0.3 mm 6 mps 730 mmHg 94%
    11:00 +10°C° 0.3 mm 6 mps 731 mmHg 94%
    12:00 +10°C° 0.3 mm 7 mps 732 mmHg 93%
    13:00 +10°C° 0.2 mm 7 mps 732 mmHg 93%
    14:00 +9°C° 0.2 mm 7 mps 733 mmHg 93%
    15:00 +9°C° 0.2 mm 7 mps 734 mmHg 93%
    16:00 +9°C° 0.1 mm 6 mps 735 mmHg 93%
    17:00 +8°C° 0.1 mm 6 mps 735 mmHg 93%
    18:00 +8°C° 0.1 mm 5 mps 736 mmHg 93%
    19:00 +8°C° 0 mm 5 mps 736 mmHg 93%
    20:00 +8°C° 0 mm 5 mps 737 mmHg 92%
    21:00 +8°C° 0 mm 5 mps 737 mmHg 92%
    22:00 +8°C° 0 mm 4 mps 737 mmHg 92%
    23:00 +8°C° 0 mm 4 mps 737 mmHg 92%

    30 June, Sunday

    Time Temperature Precipitation Wind Pressure Humidity
    00:00 +8°C° 0 mm 4 mps 738 mmHg 92%
    01:00 +8°C° 0 mm 4 mps 738 mmHg 91%
    02:00 +8°C° 0 mm 4 mps 738 mmHg 89%
    03:00 +8°C° 0 mm 4 mps 738 mmHg 88%
    04:00 +8°C° 0 mm 4 mps 738 mmHg 87%
    05:00 +10°C° 0 mm 4 mps 739 mmHg 87%
    06:00 +10°C° 0 mm 4 mps 739 mmHg 86%
    07:00 +11°C° 0 mm 4 mps 739 mmHg 83%
    08:00 +12°C° 0 mm 4 mps 739 mmHg 79%
    09:00 +13°C° 0 mm 5 mps 740 mmHg 75%
    10:00 +14°C° 0 mm 5 mps 740 mmHg 71%
    11:00 +16°C° 0 mm 5 mps 740 mmHg 66%
    12:00 +17°C° 0 mm 5 mps 740 mmHg 62%
    13:00 +19°C° 0 mm 5 mps 740 mmHg 60%
    14:00 +19°C° 0 mm 5 mps 740 mmHg 58%
    15:00 +20°C° 0 mm 5 mps 740 mmHg 57%
    16:00 +19°C° 0.1 mm 4 mps 740 mmHg 62%
    17:00 +19°C° 0.1 mm 4 mps 740 mmHg 67%
    18:00 +19°C° 0.1 mm 3 mps 740 mmHg 71%
    19:00 +18°C° 0.3 mm 3 mps 741 mmHg 77%
    20:00 +16°C° 0.3 mm 3 mps 741 mmHg 83%
    21:00 +14°C° 0.3 mm 3 mps 741 mmHg 89%
    22:00 +13°C° 0 mm 3 mps 741 mmHg 90%
    23:00 +12°C° 0 mm 3 mps 741 mmHg 91%

    1 July, Monday

    Time Temperature Precipitation Wind Pressure Humidity
    00:00 +12°C° 0 mm 3 mps 742 mmHg 92%
    01:00 +11°C° 0 mm 3 mps 742 mmHg 92%
    02:00 +11°C° 0 mm 3 mps 742 mmHg 92%
    03:00 +11°C° 0 mm 3 mps 742 mmHg 91%
    04:00 +11°C° 0 mm 3 mps 742 mmHg 89%
    05:00 +12°C° 0 mm 2 mps 743 mmHg 88%
    06:00 +13°C° 0 mm 2 mps 743 mmHg 86%
    07:00 +14°C° 0 mm 2 mps 743 mmHg 81%
    08:00 +16°C° 0 mm 1 mps 743 mmHg 76%
    09:00 +19°C° 0 mm 1 mps 743 mmHg 71%
    10:00 +19°C° 0 mm 2 mps 743 mmHg 68%
    11:00 +20°C° 0 mm 2 mps 743 mmHg 65%
    12:00 +21°C° 0 mm 2 mps 743 mmHg 62%
    13:00 +23°C° 0 mm 2 mps 742 mmHg 63%
    14:00 +23°C° 0 mm 2 mps 742 mmHg 65%
    15:00 +24°C° 0 mm 3 mps 742 mmHg 66%
    16:00 +24°C° 0 mm 3 mps 741 mmHg 70%
    17:00 +22°C° 0 mm 3 mps 741 mmHg 74%
    18:00 +22°C° 0 mm 3 mps 741 mmHg 78%
    19:00 +21°C° 0 mm 3 mps 741 mmHg 83%
    20:00 +20°C° 0 mm 3 mps 741 mmHg 88%
    21:00 +19°C° 0 mm 3 mps 740 mmHg 93%
    22:00 +18°C° 0 mm 3 mps 740 mmHg 94%
    23:00 +18°C° 0 mm 3 mps 740 mmHg 95%

    2 July, Tuesday

    Time Temperature Precipitation Wind Pressure Humidity
    00:00 +18°C° 0 mm 3 mps 740 mmHg 96%
    01:00 +17°C° 0.4 mm 3 mps 739 mmHg 97%
    02:00 +17°C° 0.4 mm 3 mps 739 mmHg 97%
    03:00 +17°C° 0.4 mm 3 mps 738 mmHg 97%
    04:00 +18°C° 1 mm 3 mps 738 mmHg 97%
    05:00 +18°C° 1 mm 3 mps 738 mmHg 97%
    06:00 +19°C° 1 mm 3 mps 738 mmHg 96%
    07:00 +20°C° 0.3 mm 3 mps 738 mmHg 93%
    08:00 +21°C° 0.3 mm 3 mps 738 mmHg 89%
    09:00 +24°C° 0.3 mm 3 mps 738 mmHg 86%
    10:00 +23°C° 0.2 mm 4 mps 738 mmHg 80%
    11:00 +25°C° 0.2 mm 5 mps 738 mmHg 74%
    12:00 +26°C° 0.2 mm 6 mps 738 mmHg 68%
    13:00 +24°C° 0 mm 7 mps 738 mmHg 67%
    14:00 +24°C° 0 mm 7 mps 738 mmHg 66%
    15:00 +24°C° 0 mm 7 mps 738 mmHg 65%
    16:00 +23°C° 0 mm 6 mps 738 mmHg 67%
    17:00 +23°C° 0 mm 6 mps 738 mmHg 69%
    18:00 +22°C° 0 mm 5 mps 738 mmHg 71%
    19:00 +21°C° 0 mm 4 mps 739 mmHg 74%
    20:00 +20°C° 0 mm 4 mps 739 mmHg 78%
    21:00 +18°C° 0 mm 3 mps 739 mmHg 81%
    22:00 +18°C° 0 mm 3 mps 739 mmHg 83%
    23:00 +17°C° 0 mm 3 mps 739 mmHg 86%
    Show more